Montpelier, VT

7:59 PM EDT on June 25, 2017 (GMT -0400)
Knapp State

Weather History for KMPV - April, 2014

Change the Weather History Date:

Monday, April 7, 2014

  Actual Average Record
Temperature  
Mean Temperature 39 °F 39 °F  
Max Temperature 53 °F 49 °F 81 °F (2010)
Min Temperature 24 °F 28 °F 9 °F (1982)
Degree Days  
Heating Degree Days 26 26  
Month to date heating degree days 203 194  
Since 1 July heating degree days 7817 7219  
Moisture  
Dew Point 26 °F    
Average Humidity 65    
Maximum Humidity 100    
Minimum Humidity 29    
Precipitation  
Precipitation 0.11 in 0.08 in 0.68 in (1962)
Month to date precipitation 0.27 0.59  
Year to date precipitation 7.63 7.47  
Sea Level Pressure  
Sea Level Pressure 30.11 in    
Wind  
Wind Speed 8 mph (SSE)    
Max Wind Speed 30 mph    
Max Gust Speed 41 mph    
Visibility 9 miles    
Events Rain , Snow    
T = Trace of Precipitation, MM = Missing Value Source: NWS Daily Summary

Daily Weather History Graph

Daily Weather History Graph

Search for Another Location

Airport or City:

Trip Planner

Search our weather history database for the weather conditions in past years. The results will help you decide how hot, cold, wet, or windy it might be!

Date:

Astronomy

Apr. 07, 2014 Rise Set
Actual Time 6:20 AM EDT 7:24 PM EDT
Civil Twilight 5:51 AM EDT 7:54 PM EDT
Nautical Twilight 5:15 AM EDT 8:29 PM EDT
Astronomical Twilight 4:38 AM EDT 9:07 PM EDT
Moon 12:08 PM EDT (4/7) 2:06 AM EDT (4/7)
Length of Visible Light 14h 03m
Length of Day
13h 04m
First Quarter, 53% of the Moon is Illuminated
Apr 7
First Quarter
Apr 15
Full
Apr 22
Last Quarter
Apr 29
New
May 6
First Quarter

Hourly Weather History & Observations

Time (EDT) Temp. Windchill Dew Point Humidity Pressure Visibility Wind Dir Wind Speed Gust Speed Precip Events Conditions
12:51 AM 30.0 °F - 21.0 °F 69% 30.23 in 10.0 mi Calm Calm - N/A   Clear
1:51 AM 28.0 °F - 23.0 °F 81% 30.23 in 10.0 mi Calm Calm - N/A   Clear
2:51 AM 27.0 °F - 21.9 °F 81% 30.22 in 10.0 mi Calm Calm - N/A   Clear
3:51 AM 26.1 °F - 21.0 °F 81% 30.24 in 10.0 mi Calm Calm - N/A   Clear
4:51 AM 25.0 °F 20.7 °F 21.0 °F 85% 30.24 in 10.0 mi South 3.5 mph - N/A   Clear
5:51 AM 25.0 °F - 19.9 °F 81% 30.25 in 10.0 mi Calm Calm - N/A   Clear
6:51 AM 25.0 °F - 21.9 °F 88% 30.25 in 10.0 mi Calm Calm - N/A   Clear
7:51 AM 28.0 °F - 24.1 °F 85% 30.26 in 8.0 mi Calm Calm - N/A   Clear
8:51 AM 32.0 °F - 25.0 °F 75% 30.26 in 10.0 mi Calm Calm - N/A   Clear
9:51 AM 37.9 °F - 25.0 °F 60% 30.25 in 10.0 mi Calm Calm - N/A   Clear
10:51 AM 48.0 °F - 23.0 °F 37% 30.22 in 10.0 mi South 10.4 mph - N/A   Clear
11:51 AM 50.0 °F - 23.0 °F 35% 30.18 in 10.0 mi South 10.4 mph - N/A   Clear
12:51 PM 53.1 °F - 23.0 °F 31% 30.17 in 10.0 mi South 15.0 mph 21.9 mph N/A   Clear
1:51 PM 51.1 °F - 23.0 °F 33% 30.16 in 10.0 mi SSE 19.6 mph 24.2 mph N/A   Clear
2:51 PM 51.1 °F - 23.0 °F 33% 30.12 in 10.0 mi SSE 16.1 mph - N/A   Clear
3:51 PM 48.9 °F - 24.1 °F 38% 30.12 in 10.0 mi South 10.4 mph - N/A   Clear
4:51 PM 50.0 °F - 24.1 °F 36% 30.10 in 10.0 mi SSE 11.5 mph - N/A   Clear
5:51 PM 51.1 °F - 24.1 °F 35% 30.08 in 10.0 mi SSE 9.2 mph - N/A   Clear
6:51 PM 48.0 °F - 25.0 °F 41% 30.07 in 10.0 mi SSE 5.8 mph - N/A   Mostly Cloudy
7:51 PM 44.1 °F 39.5 °F 26.1 °F 49% 30.04 in 10.0 mi South 8.1 mph - N/A   Overcast
8:51 PM 46.9 °F - 28.0 °F 48% 30.01 in 10.0 mi South 18.4 mph 41.4 mph N/A   Mostly Cloudy
9:51 PM 46.0 °F 38.0 °F 27.0 °F 47% 29.99 in 10.0 mi South 21.9 mph 35.7 mph N/A   Overcast
10:32 PM 39.0 °F 29.3 °F 33.1 °F 79% 29.97 in 7.0 mi South 19.6 mph 31.1 mph 0.02 in Rain Light Rain
10:41 PM 39.0 °F 30.3 °F 33.1 °F 79% 29.97 in 9.0 mi South 16.1 mph 28.8 mph 0.02 in Rain Light Rain
10:51 PM 37.9 °F 27.9 °F 33.1 °F 83% 29.98 in 7.0 mi South 19.6 mph 28.8 mph 0.03 in Rain Light Rain
11:18 PM 37.0 °F 28.9 °F 33.1 °F 86% 29.94 in 5.0 mi SSE 12.7 mph - 0.02 in Rain Rain
11:37 PM 34.0 °F 31.0 °F 32.0 °F 92% 29.92 in 2.5 mi SE 3.5 mph - 0.07 in Snow Light Snow
11:42 PM 34.0 °F 29.8 °F 33.1 °F 96% 29.91 in 4.0 mi SE 4.6 mph - 0.07 in Snow Light Snow
11:51 PM 34.0 °F 31.0 °F 33.1 °F 96% 29.93 in 8.0 mi ESE 3.5 mph - 0.08 in Rain Light Rain